Regional Weather Roundup
Issued by NWS Midland/Odessa, TX

Skip options and go directly to product.
Home | Oldest Version | Next Version | Current Version | All | Text Only | Save Text | Print | Product List | Glossary On

Skip product version selection by date and time.   
484
ASUS44 KMAF 282110
RWRMAF
MIDLAND AREA WEATHER ROUNDUP
NATIONAL WEATHER SERVICE MIDLAND TX
400 PM CDT THU JUL 28 2016

...IN SOUTHWEST TEXAS AND SOUTHEAST NEW MEXICO...

CITY           SKY/WX    TMP DP  RH WIND       PRES   REMARKS
ALPINE         MOSUNNY   90  50  25 N13G18    30.14F
ANDREWS        FAIR      93  59  32 E12       30.04F
ARTESIA        SUNNY     95  57  28 NE12      30.04F
BIG SPRING     MOSUNNY   95  62  32 E3        30.02F
CARLSBAD       CLOUDY    92  59  33 VRB3      30.02F
DRYDEN           N/A     90  69  50 SE12G23   29.96F
FORT STOCKTON  MOSUNNY   92  60  34 SE15G21   30.01F
GUAD PASS      SUNNY     87  50  27 E23G32    30.19F
HOBBS          MOSUNNY   93  52  24 NE10G17   30.07F
MARFA          MOSUNNY   89  55  31 NE15G23   30.13F
MIDLAND AIRPK  MOSUNNY   94  58  30 E3        30.02F
MIDLAND INTL   PTSUNNY   92  60  34 SE9G20    30.02F
ODESSA         MOSUNNY   93  59  31 SE14      30.04F
PECOS          MOSUNNY   95  58  28 E10G18    29.99F
PRESIDIO       FAIR      98  55  23 E17G24    29.94F
SEMINOLE       MOSUNNY   93  58  30 SE12      30.05F
SNYDER           N/A     93  63  36 S3        29.99F
WINK           MOSUNNY   94  60  32 SE10      29.99F
$$
...OTHER STATIONS IN TEXAS...

CITY           SKY/WX    TMP DP  RH WIND       PRES   REMARKS
ABILENE        MOSUNNY   95  65  37 S12G22    29.97F
AMARILLO       SUNNY     93  55  27 SE10      30.07F
AUSTIN         TSTM      79  72  79 SE22G32   30.00R
BROWNSVILLE    MOSUNNY   94  73  50 SE20G26   29.93F HX 103
CORPUS CHRISTI PTSUNNY   93  73  52 SE20G26   29.93F HX 102
DALLAS FTW     PTSUNNY   96  69  41 SW6       29.91F HX 102
DEL RIO        MOSUNNY   96  66  37 SE8       29.90F
EL PASO        FAIR      97  47  18 E9        30.03F
HOUSTON INT    LGT RAIN  79  74  84 NW3       30.00F
LUBBOCK        MOSUNNY   94  55  26 CALM      30.05F
SAN ANGELO     SUNNY     94  64  37 E13       29.97F
SAN ANTONIO    CLOUDY    91  69  48 E23G32    29.96R
WACO           CLOUDY    95  67  39 S8        29.94S
WICHITA FALLS  NOT AVBL
$$
...OTHER LOCATIONS IN NEW MEXICO...

CITY           SKY/WX    TMP DP  RH WIND       PRES   REMARKS
ALAMAGORDO     SUNNY     95  50  21 SW5       30.06F
ALBUQUERQUE    PTSUNNY   94  37  13 W5        30.15F
CANNON AFB     NOT AVBL
CLOVIS         SUNNY     90  54  29 CALM      30.12F
HOLLOMAN AFB   NOT AVBL
ROSWELL        SUNNY     96  54  24 E10G17    30.05F
RUIDOSO          N/A     81  45  28 SE7G17    30.33F
SANTA FE       CLOUDY    88  41  19 SW12      30.24F
TRUTH OR CONSE FAIR      93  49  22 E3        30.12F
TUCUMCARI      SUNNY     96  46  18 VRB6      30.06F
$$

USA.gov is the U.S. government's official web portal to all federal, state and local government web resources and services.